Simultaneous Nadir Overpasses (SNOs) Predictions

Prediction of SNOs between AQUA and METOP-A Satellite Orbit:

Table of predicted SNOs for the next 14.0 days since TLE Epoch: 10/21/2011
Index Date Time (AQUA) AQUA Lat,Lon METOP-A Lat,Lon Distance(km) Time Diff (sec)
1 10/23/2011 09:00:13 71.28, 43.46 71.23, 34.10 334.27 34
2 10/23/2011 09:50:24 -73.71,-153.47 -73.70,-153.54 2.14 51
3 10/23/2011 10:39:53 73.79, 13.99 73.77, 13.95 2.90 18
4 10/23/2011 11:29:33 -74.54, 179.89 -74.57,-176.68 101.85 64
5 10/26/2011 04:34:38 72.07, 108.56 72.06, 102.03 223.58 50
6 10/26/2011 05:24:35 -73.74, -87.09 -73.76, -87.00 3.03 38
7 10/26/2011 06:14:03 73.78, 80.47 73.77, 80.36 3.63 33
8 10/26/2011 07:03:56 -75.18,-115.32 -75.15,-108.63 190.24 54
9 10/29/2011 00:09:02 72.81, 173.65 72.78, 169.89 123.80 62
10 10/29/2011 00:58:45 -73.73, -20.60 -73.76, -20.59 3.57 22
11 10/29/2011 01:48:14 73.82, 146.84 73.82, 146.89 1.73 47
12 10/29/2011 02:38:21 -75.91, -50.97 -75.86, -40.00 297.06 40
13 10/31/2011 19:43:24 73.49,-121.27 73.44,-122.25 31.48 71
14 10/31/2011 20:32:55 -73.77, 45.77 -73.77, 45.83 1.97 6
15 10/31/2011 21:22:23 73.81,-146.69 73.83,-146.69 1.70 64
16 11/03/2011 14:27:15 -70.88, 142.30 -70.88, 131.79 382.57 26
17 11/03/2011 15:17:35 73.70, -55.25 73.70, -55.25 0.29 62
18 11/03/2011 16:07:02 -73.77, 112.25 -73.78, 112.25 1.07 12




NCC Satellite Simultaneous Nadir Overpasses (SNOs) Prediction Service
